Regional Weather Roundup
Issued by NWS

Home | Current Version | Previous Version | Text Only | Print | Product List | Glossary On
Versions: 1 2 3 4 5 6 7 8 9 10 11 12 13 14 15 16 17 18 19 20 21 22 23 24 25 26 27
000
ASUS42 KFFC 312203
RWRGA
WEATHER ROUNDUP FOR GEORGIA
NATIONAL WEATHER SERVICE PEACHTREE CITY GA
600 PM EDT FRI OCT 31 2014

NOTE: "FAIR" INDICATES FEW OR NO CLOUDS BELOW 12,000 FEET WITH NO
SIGNIFICANT WEATHER AND/OR OBSTRUCTIONS TO VISIBILITY.

* = USE WITH CAUTION. THE STATIONS MARKED WITH AN ASTERISK MAY NOT
REPORT WEATHER SUCH AS PRECIPITATION, FOG, OR THUNDER AND ARE NOT
QUALITY CONTROLLED BY NWS.

THE REMARK "TC" DENOTES TEMPERATURE READING IN DEGREES CELSIUS.

GAZ001>058-312300-
NORTH GEORGIA

CITY           SKY/WX    TMP DP  RH WIND       PRES   REMARKS
ATLANTA        MOCLDY    59  42  53 NW10      29.89R
ATHENS         CLOUDY    59  41  51 W12       29.84R
CHAMBLEE       CLOUDY    57  40  52 NW14G22   29.89R
PEACHTREE CITY CLOUDY    60  42  51 NW8       29.91R
ROME           CLOUDY    56  45  66 NW14G22   29.92R
WEST ATLANTA   CLOUDY    58  42  55 NW9       29.90R
GAINESVILLE    CLOUDY    55  40  56 NW15G24   29.88R
CARTERSVILLE   CLOUDY    56  43  61 CALM      29.91S


CITY           SKY/WX    TMP DP  RH WIND       PRES   REMARKS
DALTON*        LGT RAIN  50  48  93 NW3       29.92R
LAWRENCEVILLE* CLOUDY    57  37  47 W12       29.87R
MARIETTA       CLOUDY    57  43  60 NW9       29.89R
KENNESAW*      MOCLDY    55  39  54 NW7       29.91R
$$

GAZ059>098-102>109-312300-
CENTRAL GEORGIA

CITY           SKY/WX    TMP DP  RH WIND       PRES   REMARKS
AUGUSTA-BUSH   MOCLDY    67  44  43 NW5       29.78S
AUGUSTA-DANIEL MOCLDY    67  41  38 W8        29.80R
COLUMBUS       MOCLDY    64  39  39 N9        29.90R
MACON          MOCLDY    64  40  41 NW12G20   29.86R
ROBINS AFB     PTCLDY    65  41  41 W16       29.83S


CITY           SKY/WX    TMP DP  RH WIND       PRES   REMARKS
LAGRANGE*      CLOUDY    64  46  51 N13G18    29.92R
SYLVANIA*      PTCLDY    71  54  53 E3        29.80R
MILLEDGEVILLE* PTCLDY    63  46  55 NW12      29.85R
$$

GAZ099>101-110>166-312300-
SOUTH GEORGIA

CITY           SKY/WX    TMP DP  RH WIND       PRES   REMARKS
SAVANNAH       PTCLDY    68  48  48 W5        29.80R
VALDOSTA       CLEAR     69  38  32 VRB5      29.85R
ALMA           CLEAR     70  37  29 W9        29.81S
ST SIMONS      MOCLDY    70  51  51 CALM      29.80S
FT STEWART     CLEAR     70  48  46 W6        29.79R
ALBANY         PTCLDY    69  43  38 NW10      29.89R
HUNTER AFB     PTCLDY    67  50  53 W3        29.78R
MOODY AFB      CLEAR     70  40  33 NW9       29.85R
BRUNSWICK      MOCLDY    72  46  40 NW3       29.81R


CITY           SKY/WX    TMP DP  RH WIND       PRES   REMARKS
BAINBRIDGE*    CLEAR     73  43  33 NW10      29.88R
MOULTRIE*      CLEAR     70  39  32 NW8       29.87R
VIDALIA*       PTCLDY    70  41  35 NW7       29.81R
WAYCROSS*      CLEAR     73  43  33 NW6       29.81S
DOUGLAS*       CLEAR     72  36  26 NW7       29.84S
$$



USA.gov is the U.S. government's official web portal to all federal, state and local government web resources and services.